GLD1620 BIKF-EKVG

Flight info

Callsign GLD1620
Flight time 1h 11m
Altitude 37000
Route OSKU3A OSKUM MAGNI
Aircraft A20N/M-SDE2E3FGHIRWXY/LB1

Departure

Time 2026-05-07 23:56
Airport Keflavik International Airport (BIKF)

Arrival

Time 2026-05-08 01:07
Airport Vágar Airport (EKVG)
Time Latitude Longitude Altitude Speed Heading
2026-05-07 23:27 63.99370 -22.62219 161 ft 0 kts 235°
2026-05-07 23:40 63.99382 -22.62182 162 ft 4 kts 235°
2026-05-07 23:41 63.99397 -22.62131 162 ft 4 kts 235°
2026-05-07 23:41 63.99413 -22.62082 163 ft 4 kts 225°
2026-05-07 23:41 63.99432 -22.62053 163 ft 4 kts 166°
2026-05-07 23:41 63.99438 -22.62056 163 ft 1 kts 150°
2026-05-07 23:48 63.99416 -22.62027 163 ft 7 kts 150°
2026-05-07 23:49 63.99346 -22.61995 163 ft 14 kts 177°
2026-05-07 23:49 63.99232 -22.61979 162 ft 19 kts 181°
2026-05-07 23:49 63.99173 -22.61806 163 ft 15 kts 89°
2026-05-07 23:49 63.99173 -22.61559 166 ft 16 kts 89°
2026-05-07 23:50 63.99173 -22.61297 168 ft 17 kts 89°
2026-05-07 23:50 63.99171 -22.61026 169 ft 15 kts 96°
2026-05-07 23:50 63.99103 -22.60947 168 ft 13 kts 172°
2026-05-07 23:50 63.98999 -22.60943 167 ft 17 kts 179°
2026-05-07 23:51 63.98870 -22.60943 166 ft 21 kts 180°
2026-05-07 23:51 63.98713 -22.60942 164 ft 24 kts 181°
2026-05-07 23:51 63.98531 -22.60938 161 ft 28 kts 180°
2026-05-07 23:51 63.98332 -22.60939 161 ft 30 kts 180°
2026-05-07 23:52 63.98117 -22.60949 160 ft 32 kts 180°
2026-05-07 23:52 63.97888 -22.60953 158 ft 34 kts 180°
2026-05-07 23:52 63.97645 -22.60944 156 ft 36 kts 180°
2026-05-07 23:52 63.97389 -22.60946 153 ft 38 kts 180°
2026-05-07 23:53 63.97121 -22.60946 151 ft 39 kts 181°
2026-05-07 23:53 63.96842 -22.60945 148 ft 41 kts 180°
2026-05-07 23:53 63.96623 -22.60945 146 ft 14 kts 180°
2026-05-07 23:53 63.96514 -22.60941 145 ft 17 kts 173°
2026-05-07 23:54 63.96466 -22.60809 144 ft 0 kts 103°
2026-05-07 23:55 63.96464 -22.60776 144 ft 6 kts 96°
2026-05-07 23:55 63.96469 -22.60586 144 ft 16 kts 60°
2026-05-07 23:55 63.96565 -22.60548 145 ft 29 kts
2026-05-07 23:55 63.97063 -22.60543 149 ft 110 kts
2026-05-07 23:56 63.97993 -22.60541 319 ft 155 kts
2026-05-07 23:56 63.99144 -22.60538 699 ft 179 kts
2026-05-07 23:56 64.00374 -22.60526 1197 ft 179 kts
2026-05-07 23:56 64.01599 -22.60521 1789 ft 171 kts
2026-05-07 23:57 64.02865 -22.60524 2311 ft 191 kts
2026-05-07 23:57 64.04212 -22.60170 2975 ft 210 kts 19°
2026-05-07 23:57 64.05494 -22.58276 3807 ft 224 kts 45°
2026-05-07 23:57 64.06249 -22.55165 4768 ft 236 kts 71°
2026-05-07 23:58 64.06356 -22.51440 5716 ft 246 kts 86°
2026-05-07 23:58 64.06323 -22.47453 6686 ft 251 kts 86°
2026-05-07 23:58 64.06258 -22.43482 7584 ft 258 kts 93°
2026-05-07 23:58 64.05782 -22.39510 8501 ft 268 kts 110°
2026-05-07 23:59 64.04850 -22.35678 9419 ft 276 kts 117°
2026-05-07 23:59 64.04206 -22.33154 10044 ft 279 kts 116°
2026-05-07 23:59 64.03226 -22.29246 10908 ft 283 kts 116°
2026-05-07 23:59 64.02246 -22.25302 11485 ft 300 kts 116°
2026-05-08 00:00 64.01201 -22.21087 11837 ft 322 kts 116°
2026-05-08 00:00 64.00060 -22.16498 12165 ft 343 kts 117°
2026-05-08 00:00 63.98864 -22.11721 12896 ft 350 kts 117°
2026-05-08 00:00 63.97651 -22.06899 13740 ft 354 kts 117°
2026-05-08 00:01 63.96414 -22.01988 14509 ft 359 kts 117°
2026-05-08 00:01 63.95192 -21.97145 15259 ft 363 kts 117°
2026-05-08 00:01 63.93906 -21.92053 15975 ft 368 kts 117°
2026-05-08 00:01 63.92621 -21.86979 16683 ft 372 kts 117°
2026-05-08 00:02 63.91507 -21.82588 17278 ft 376 kts 117°
2026-05-08 00:02 63.90197 -21.77437 17982 ft 381 kts 117°
2026-05-08 00:02 63.88859 -21.72183 18640 ft 386 kts 117°
2026-05-08 00:02 63.87512 -21.66914 19232 ft 389 kts 117°
2026-05-08 00:03 63.86144 -21.61577 19852 ft 393 kts 117°
2026-05-08 00:03 63.84780 -21.56267 20446 ft 397 kts 117°
2026-05-08 00:03 63.83389 -21.50862 21036 ft 400 kts 117°
2026-05-08 00:03 63.81976 -21.45389 21626 ft 404 kts 117°
2026-05-08 00:04 63.80548 -21.39867 22209 ft 408 kts 117°
2026-05-08 00:04 63.79092 -21.34256 22792 ft 412 kts 117°
2026-05-08 00:04 63.77669 -21.28653 23351 ft 415 kts 114°
2026-05-08 00:04 63.76543 -21.22677 23886 ft 415 kts 104°
2026-05-08 00:05 63.75819 -21.16290 24372 ft 413 kts 95°
2026-05-08 00:05 63.75427 -21.09928 24839 ft 415 kts 93°
2026-05-08 00:05 63.75040 -21.03443 25316 ft 418 kts 93°
2026-05-08 00:05 63.74640 -20.96940 25790 ft 421 kts 94°
2026-05-08 00:06 63.74222 -20.90279 26241 ft 424 kts 94°
2026-05-08 00:06 63.73803 -20.83693 26702 ft 427 kts 94°
2026-05-08 00:06 63.73382 -20.77143 27114 ft 429 kts 94°
2026-05-08 00:06 63.72943 -20.70355 27549 ft 432 kts 94°
2026-05-08 00:07 63.72507 -20.63659 27957 ft 435 kts 94°
2026-05-08 00:07 63.72059 -20.56836 28359 ft 438 kts 94°
2026-05-08 00:07 63.71614 -20.50107 28736 ft 441 kts 94°
2026-05-08 00:07 63.71158 -20.43265 29110 ft 443 kts 94°
2026-05-08 00:08 63.70648 -20.36341 29477 ft 447 kts 95°
2026-05-08 00:08 63.70097 -20.29456 29827 ft 450 kts 95°
2026-05-08 00:08 63.69536 -20.22457 30174 ft 453 kts 95°
2026-05-08 00:08 63.68987 -20.15497 30470 ft 455 kts 95°
2026-05-08 00:09 63.68443 -20.08522 30755 ft 458 kts 95°
2026-05-08 00:09 63.67899 -20.01502 31039 ft 460 kts 95°
2026-05-08 00:09 63.67346 -19.94404 31328 ft 462 kts 96°
2026-05-08 00:09 63.66809 -19.87533 31674 ft 463 kts 96°
2026-05-08 00:10 63.66227 -19.80152 32074 ft 463 kts 96°
2026-05-08 00:10 63.65660 -19.73001 32447 ft 463 kts 96°
2026-05-08 00:10 63.65091 -19.65884 32811 ft 464 kts 96°
2026-05-08 00:10 63.64515 -19.58762 33181 ft 464 kts 97°
2026-05-08 00:11 63.63929 -19.51590 33552 ft 464 kts 97°
2026-05-08 00:11 63.63341 -19.44449 33921 ft 464 kts 97°
2026-05-08 00:11 63.62763 -19.37465 34239 ft 464 kts 97°
2026-05-08 00:11 63.62169 -19.30345 34500 ft 464 kts 97°
2026-05-08 00:12 63.61565 -19.23156 34762 ft 464 kts 97°
2026-05-08 00:12 63.60963 -19.16025 35007 ft 464 kts 98°
2026-05-08 00:12 63.60359 -19.08929 35263 ft 464 kts 98°
2026-05-08 00:12 63.59756 -19.01876 35517 ft 464 kts 98°
2026-05-08 00:13 63.59144 -18.94772 35768 ft 464 kts 98°
2026-05-08 00:13 63.58534 -18.87740 35995 ft 464 kts 98°
2026-05-08 00:13 63.57915 -18.80628 36214 ft 464 kts 98°
2026-05-08 00:13 63.57292 -18.73526 36453 ft 463 kts 98°
2026-05-08 00:14 63.56674 -18.66526 36665 ft 463 kts 98°
2026-05-08 00:14 63.56036 -18.59335 36876 ft 463 kts 99°
2026-05-08 00:14 63.54768 -18.45179 36921 ft 462 kts 99°
2026-05-08 00:15 63.53498 -18.31163 36921 ft 462 kts 99°
2026-05-08 00:15 63.52206 -18.17081 36911 ft 462 kts 99°
2026-05-08 00:16 63.50896 -18.02958 36910 ft 462 kts 99°
2026-05-08 00:16 63.49577 -17.88902 36898 ft 462 kts 99°
2026-05-08 00:17 63.48242 -17.74834 36904 ft 462 kts 100°
2026-05-08 00:17 63.46903 -17.60883 36901 ft 462 kts 100°
2026-05-08 00:18 63.45537 -17.46802 36901 ft 462 kts 100°
2026-05-08 00:18 63.44160 -17.32775 36897 ft 462 kts 100°
2026-05-08 00:19 63.42772 -17.18772 36889 ft 462 kts 101°
2026-05-08 00:19 63.41377 -17.04860 36894 ft 462 kts 101°
2026-05-08 00:20 63.39961 -16.90889 36896 ft 462 kts 101°
2026-05-08 00:20 63.38530 -16.76922 36879 ft 462 kts 101°
2026-05-08 00:21 63.37084 -16.62960 36882 ft 462 kts 101°
2026-05-08 00:21 63.35632 -16.49093 36881 ft 463 kts 101°
2026-05-08 00:22 63.34163 -16.35181 36883 ft 463 kts 101°
2026-05-08 00:22 63.32671 -16.21199 36878 ft 463 kts 101°
2026-05-08 00:23 63.31181 -16.07391 36878 ft 462 kts 101°
2026-05-08 00:23 63.29670 -15.93503 36873 ft 463 kts 102°
2026-05-08 00:24 63.28143 -15.79616 36869 ft 463 kts 102°
2026-05-08 00:24 63.26610 -15.65820 36870 ft 462 kts 102°
2026-05-08 00:25 63.25053 -15.51941 36865 ft 463 kts 102°
2026-05-08 00:25 63.23486 -15.38104 36860 ft 463 kts 102°
2026-05-08 00:26 63.21906 -15.24281 36854 ft 463 kts 103°
2026-05-08 00:26 63.20308 -15.10444 36848 ft 463 kts 103°
2026-05-08 00:27 63.18699 -14.96635 36845 ft 463 kts 103°
2026-05-08 00:27 63.17088 -14.82933 36840 ft 463 kts 103°
2026-05-08 00:28 63.15455 -14.69177 36833 ft 463 kts 104°
2026-05-08 00:28 63.13810 -14.55455 36826 ft 462 kts 104°
2026-05-08 00:29 63.12146 -14.41694 36817 ft 463 kts 104°
2026-05-08 00:29 63.10469 -14.27947 36808 ft 463 kts 104°
2026-05-08 00:30 63.08796 -14.14361 36801 ft 462 kts 104°
2026-05-08 00:30 63.07094 -14.00667 36789 ft 463 kts 105°
2026-05-08 00:31 63.05377 -13.86974 36783 ft 462 kts 105°
2026-05-08 00:31 63.03651 -13.73321 36776 ft 462 kts 105°
2026-05-08 00:32 63.02029 -13.60609 36766 ft 463 kts 105°
2026-05-08 00:32 63.00345 -13.47511 36754 ft 463 kts 105°
2026-05-08 00:33 62.98612 -13.34148 36744 ft 463 kts 106°
2026-05-08 00:33 62.96837 -13.20582 36731 ft 463 kts 106°
2026-05-08 00:34 62.95042 -13.06971 36723 ft 462 kts 106°
2026-05-08 00:34 62.93239 -12.93424 36710 ft 462 kts 106°
2026-05-08 00:35 62.91426 -12.79912 36696 ft 462 kts 106°
2026-05-08 00:35 62.89609 -12.66480 36681 ft 462 kts 107°
2026-05-08 00:36 62.87812 -12.53305 36672 ft 462 kts 107°
2026-05-08 00:36 62.85930 -12.39626 36665 ft 462 kts 107°
2026-05-08 00:37 62.84065 -12.26175 36647 ft 462 kts 107°
2026-05-08 00:38 62.81254 -12.06100 36916 ft 463 kts 107°
2026-05-08 00:38 62.79365 -11.92755 36981 ft 461 kts 107°
2026-05-08 00:39 62.77459 -11.79385 36971 ft 461 kts 108°
2026-05-08 00:39 62.75547 -11.66085 36916 ft 453 kts 108°
2026-05-08 00:39 62.74611 -11.59610 36795 ft 442 kts 108°
2026-05-08 00:40 62.73693 -11.53283 36484 ft 435 kts 108°
2026-05-08 00:40 62.72779 -11.47013 36007 ft 432 kts 108°
2026-05-08 00:40 62.71876 -11.40835 35555 ft 428 kts 108°
2026-05-08 00:40 62.70985 -11.34761 35120 ft 423 kts 108°
2026-05-08 00:41 62.70114 -11.28849 34680 ft 420 kts 109°
2026-05-08 00:41 62.69209 -11.22724 34265 ft 416 kts 109°
2026-05-08 00:41 62.68324 -11.16753 33853 ft 412 kts 109°
2026-05-08 00:41 62.67445 -11.10848 33357 ft 408 kts 109°
2026-05-08 00:42 62.66576 -11.05032 32902 ft 403 kts 109°
2026-05-08 00:42 62.65712 -10.99261 32454 ft 399 kts 109°
2026-05-08 00:42 62.64853 -10.93551 32007 ft 395 kts 109°
2026-05-08 00:42 62.64002 -10.87904 31568 ft 391 kts 109°
2026-05-08 00:43 62.63157 -10.82322 31135 ft 387 kts 109°
2026-05-08 00:43 62.62319 -10.76794 30716 ft 383 kts 109°
2026-05-08 00:43 62.61496 -10.71387 30316 ft 379 kts 110°
2026-05-08 00:43 62.60663 -10.65925 29907 ft 375 kts 110°
2026-05-08 00:44 62.59840 -10.60560 29412 ft 372 kts 110°
2026-05-08 00:44 62.59032 -10.55302 28966 ft 367 kts 110°
2026-05-08 00:44 62.58244 -10.50193 28517 ft 363 kts 110°
2026-05-08 00:44 62.57424 -10.44894 28042 ft 359 kts 110°
2026-05-08 00:45 62.56646 -10.39882 27609 ft 355 kts 110°
2026-05-08 00:45 62.55861 -10.34834 27184 ft 351 kts 110°
2026-05-08 00:45 62.55087 -10.29873 26745 ft 347 kts 109°
2026-05-08 00:45 62.54312 -10.24922 26313 ft 343 kts 109°
2026-05-08 00:46 62.53547 -10.20048 25890 ft 340 kts 109°
2026-05-08 00:46 62.52794 -10.15258 25495 ft 336 kts 109°
2026-05-08 00:46 62.52042 -10.10494 25080 ft 333 kts 109°
2026-05-08 00:46 62.51295 -10.05769 24682 ft 330 kts 109°
2026-05-08 00:47 62.50554 -10.01098 24306 ft 326 kts 109°
2026-05-08 00:47 62.49816 -9.96463 23897 ft 324 kts 109°
2026-05-08 00:47 62.49092 -9.91919 23563 ft 320 kts 108°
2026-05-08 00:47 62.48365 -9.87377 23155 ft 317 kts 108°
2026-05-08 00:48 62.47656 -9.82947 22682 ft 315 kts 108°
2026-05-08 00:48 62.46941 -9.78488 22213 ft 313 kts 108°
2026-05-08 00:48 62.46230 -9.74060 21736 ft 311 kts 108°
2026-05-08 00:48 62.45521 -9.69659 21302 ft 309 kts 108°
2026-05-08 00:49 62.44815 -9.65288 20849 ft 307 kts 108°
2026-05-08 00:49 62.44110 -9.60935 20410 ft 306 kts 108°
2026-05-08 00:49 62.43414 -9.56645 19979 ft 304 kts 108°
2026-05-08 00:49 62.42712 -9.52335 19565 ft 302 kts 108°
2026-05-08 00:50 62.42018 -9.48082 19160 ft 300 kts 109°
2026-05-08 00:50 62.41325 -9.43841 18752 ft 299 kts 109°
2026-05-08 00:50 62.40636 -9.39641 18363 ft 297 kts 109°
2026-05-08 00:50 62.39946 -9.35437 17959 ft 296 kts 109°
2026-05-08 00:51 62.39270 -9.31331 17543 ft 294 kts 109°
2026-05-08 00:51 62.38589 -9.27202 17121 ft 292 kts 109°
2026-05-08 00:51 62.37904 -9.23047 16672 ft 290 kts 109°
2026-05-08 00:51 62.37232 -9.18990 16280 ft 288 kts 109°
2026-05-08 00:52 62.36566 -9.14975 15870 ft 287 kts 109°
2026-05-08 00:52 62.35900 -9.10978 15491 ft 284 kts 109°
2026-05-08 00:52 62.35229 -9.06950 15057 ft 284 kts 109°
2026-05-08 00:52 62.34564 -9.02968 14664 ft 282 kts 109°
2026-05-08 00:53 62.33902 -8.99015 14265 ft 281 kts 109°
2026-05-08 00:53 62.33239 -8.95064 13877 ft 280 kts 109°
2026-05-08 00:53 62.32576 -8.91127 13496 ft 279 kts 109°
2026-05-08 00:53 62.31918 -8.87220 13085 ft 278 kts 110°
2026-05-08 00:54 62.31260 -8.83326 12685 ft 276 kts 110°
2026-05-08 00:54 62.30608 -8.79475 12293 ft 274 kts 110°
2026-05-08 00:54 62.29966 -8.75692 11891 ft 273 kts 110°
2026-05-08 00:54 62.29317 -8.71876 11510 ft 271 kts 110°
2026-05-08 00:55 62.28672 -8.68090 11108 ft 269 kts 110°
2026-05-08 00:55 62.28027 -8.64311 10737 ft 268 kts 110°
2026-05-08 00:55 62.27387 -8.60568 10361 ft 266 kts 110°
2026-05-08 00:55 62.26752 -8.56861 9997 ft 265 kts 110°
2026-05-08 00:56 62.26115 -8.53156 9646 ft 263 kts 110°
2026-05-08 00:56 62.25484 -8.49485 9232 ft 262 kts 110°
2026-05-08 00:56 62.25020 -8.46796 8944 ft 261 kts 110°
2026-05-08 00:56 62.24394 -8.43167 8563 ft 259 kts 110°
2026-05-08 00:57 62.23772 -8.39572 8185 ft 258 kts 111°
2026-05-08 00:57 62.23153 -8.36000 7803 ft 256 kts 111°
2026-05-08 00:57 62.22535 -8.32439 7426 ft 255 kts 111°
2026-05-08 00:57 62.21918 -8.28882 7064 ft 253 kts 111°
2026-05-08 00:58 62.21303 -8.25341 6702 ft 252 kts 111°
2026-05-08 00:58 62.20694 -8.21845 6348 ft 250 kts 111°
2026-05-08 00:58 62.20098 -8.18426 5992 ft 249 kts 111°
2026-05-08 00:58 62.19492 -8.14956 5634 ft 247 kts 111°
2026-05-08 00:59 62.18893 -8.11531 5275 ft 245 kts 111°
2026-05-08 00:59 62.18295 -8.08119 4890 ft 245 kts 111°
2026-05-08 00:59 62.17709 -8.04784 4558 ft 242 kts 112°
2026-05-08 00:59 62.17114 -8.01401 4203 ft 241 kts 112°
2026-05-08 01:00 62.16524 -7.98055 3840 ft 240 kts 112°
2026-05-08 01:00 62.15938 -7.94736 3504 ft 239 kts 112°
2026-05-08 01:00 62.15349 -7.91408 3155 ft 237 kts 112°
2026-05-08 01:00 62.14770 -7.88142 3021 ft 235 kts 112°
2026-05-08 01:01 62.14195 -7.84906 2985 ft 238 kts 112°
2026-05-08 01:01 62.13604 -7.81585 2830 ft 235 kts 112°
2026-05-08 01:01 62.13047 -7.78367 2571 ft 233 kts 109°
2026-05-08 01:01 62.12665 -7.75004 2501 ft 236 kts 103°
2026-05-08 01:02 62.12370 -7.71564 2418 ft 233 kts 102°
2026-05-08 01:02 62.12080 -7.68139 2101 ft 234 kts 103°
2026-05-08 01:02 62.11786 -7.64840 1912 ft 215 kts 103°
2026-05-08 01:02 62.11513 -7.61898 1895 ft 190 kts 104°
2026-05-08 01:03 62.11245 -7.59169 1906 ft 187 kts 104°
2026-05-08 01:03 62.10996 -7.56645 1891 ft 161 kts 105°
2026-05-08 01:03 62.10787 -7.54519 1894 ft 136 kts 105°
2026-05-08 01:03 62.10588 -7.52549 1915 ft 139 kts 106°
2026-05-08 01:04 62.10385 -7.50577 1919 ft 129 kts 106°
2026-05-08 01:04 62.10209 -7.48817 1906 ft 118 kts 106°
2026-05-08 01:04 62.10032 -7.47072 1902 ft 120 kts 107°
2026-05-08 01:04 62.09857 -7.45355 1900 ft 117 kts 107°
2026-05-08 01:05 62.09754 -7.43610 1880 ft 122 kts 97°
2026-05-08 01:05 62.09627 -7.41847 1717 ft 118 kts 103°
2026-05-08 01:05 62.09413 -7.40152 1755 ft 119 kts 112°
2026-05-08 01:05 62.09120 -7.38511 1645 ft 117 kts 116°
2026-05-08 01:06 62.08742 -7.36957 1669 ft 120 kts 121°
2026-05-08 01:06 62.08340 -7.35477 1509 ft 115 kts 123°
2026-05-08 01:06 62.07950 -7.33959 1299 ft 120 kts 121°
2026-05-08 01:06 62.07532 -7.32392 951 ft 120 kts 121°
2026-05-08 01:07 62.07123 -7.30862 625 ft 118 kts 117°
2026-05-08 01:07 62.06750 -7.29356 312 ft 112 kts 115°
2026-05-08 01:07 62.06444 -7.28074 264 ft 62 kts 118°
2026-05-08 01:07 62.06370 -7.27777 263 ft 1 kts 117°
2026-05-08 01:08 62.06351 -7.27699 261 ft 10 kts 118°
2026-05-08 01:08 62.06308 -7.27526 259 ft 15 kts 118°
2026-05-08 01:08 62.06245 -7.27300 255 ft 20 kts 122°
2026-05-08 01:08 62.06202 -7.27119 253 ft 0 kts 68°
2026-05-08 01:09 62.06207 -7.27111 253 ft 1 kts 43°
2026-05-08 01:09 62.06208 -7.27111 253 ft 1 kts 28°
2026-05-08 01:09 62.06237 -7.27132 254 ft 5 kts 322°
2026-05-08 01:09 62.06236 -7.27199 254 ft 11 kts 275°
2026-05-08 01:10 62.06274 -7.27395 256 ft 18 kts 296°
2026-05-08 01:10 62.06334 -7.27654 261 ft 20 kts 295°
2026-05-08 01:10 62.06403 -7.27920 264 ft 19 kts 304°
2026-05-08 01:10 62.06495 -7.28113 264 ft 18 kts
2026-05-08 01:11 62.06606 -7.28066 264 ft 14 kts
2026-05-08 01:11 62.06633 -7.27943 263 ft 2 kts 96°
2026-05-08 01:11 62.06633 -7.27941 263 ft 1 kts 96°
2026-05-08 01:11 62.06628 -7.27875 263 ft 7 kts 82°
2026-05-08 01:12 62.06653 -7.27816 262 ft 0 kts 18°
2026-05-08 01:12 62.06659 -7.27825 263 ft 2 kts 326°
2026-05-08 01:12 62.06660 -7.27871 263 ft 3 kts 216°
2026-05-08 01:13 62.06632 -7.27923 263 ft 1 kts 283°
2026-05-08 01:13 62.06640 -7.27942 263 ft 4 kts 309°
2026-05-08 01:13 62.06669 -7.27958 264 ft 0 kts 12°
2026-05-08 01:13 62.06676 -7.27937 263 ft 3 kts 53°
2026-05-08 01:14 62.06685 -7.27924 263 ft 0 kts 30°
2026-05-08 01:14 62.06686 -7.27922 263 ft 0 kts 30°